Simultaneous Nadir Overpasses (SNOs) Predictions

Prediction of SNOs between AURA and NPP Satellite Orbit:

Table of predicted SNOs for the next 14.0 days since TLE Epoch: 1/29/2016
Index Date (AURA) Time (AURA) Lat,Lon (AURA) SZA (AURA ) Date (NPP) Time (NPP) Lat,Lon (NPP) SZA (NPP ) Distance(km) Time Diff (sec)
1 01/30/2016 18:19:26 79.30, 160.69 110.63 01/30/2016 18:18:48 79.30, 160.75 110.65 1.36 38
2 01/30/2016 19:08:46 -79.57, -29.80 69.78 01/30/2016 19:09:25 -79.58, -29.75 69.82 1.02 39
3 02/02/2016 10:35:57 79.32, -83.30 109.88 02/02/2016 10:35:40 79.31, -83.38 109.91 1.86 17
4 02/02/2016 11:25:17 -79.60, 86.23 70.53 02/02/2016 11:26:17 -79.59, 86.13 70.56 2.10 60
5 02/05/2016 02:03:19 -78.66,-139.01 69.98 02/05/2016 02:02:05 -78.70,-139.18 69.90 5.61 74
6 02/05/2016 02:52:24 79.48, 33.68 108.88 02/05/2016 02:52:27 79.49, 33.80 108.86 2.59 3
7 02/07/2016 18:19:37 -79.19, -20.04 71.49 02/07/2016 18:18:44 -79.18, -20.15 71.43 2.47 53
8 02/07/2016 19:08:53 79.56, 150.10 107.97 02/07/2016 19:09:17 79.57, 150.19 107.93 1.98 24
9 02/10/2016 10:36:04 -79.30, 96.54 72.48 02/10/2016 10:35:32 -79.29, 96.47 72.44 1.70 32




NCC Satellite Simultaneous Nadir Overpasses (SNOs) Prediction Service
